Showing default

FLOCK 4BE 22, 60494

Orbit data source: Space-Track

FLOCK 4BE 22, 60494 is a payload satellite owned by Planet (US) in SSO that was launched on Fri, 16 Aug 2024 UTC via an FALCON 9 launch vehicle from the Air Force Western Test Range (AFWTR). Payload-class satellites include a variety of spacecraft equipped with specific instruments for various scientific and technological missions. These include communications satellites like Starlink; space stations such as the ISS; scientific satellites like the Hubble; Earth observation satellites from companies like Planet Labs, Umbra, and HawkEye 360; GPS; miniature CubeSats for education and research; and military/defense satellites.

Loading next visibility...
Identifier
60494, 2024-149AC
Orbit
SSO
Country
Flag of USUS
Related business
Manufacturer
Planet
Mission
Operational Commercial Imaging
Bus & Motor
CUBESAT 3U, Unknown motor
Mass
5.7 kg wet, 5.7 kg dry
Launch date (UTC)
2024-08-16 (2 years ago)
Launch vehicle
FALCON 9
Launch site
Air Force Western Test Range (AFWTR)
Object type
Payload
Rocket body
Debris
Shape & HBR
Box + 2 Pan, 1.0 m
Radar Cross Section
0.072 m², Medium (>0.1 m² and < 1m²)

Expand to show TLE details & history
Last TLE update: 9 hours ago

TLE from 9 hours ago
0 FLOCK 4BE 22
1 60494U 24149AC  26140.53471454  .00012237  00000-0  30610-3 0  9997
2 60494  97.3730 223.8535 0003470  36.5597 323.5886 15.40252054 98045
Epoch: 2026-05-20T12:49Z
TLE epoch observation values (Epoch: 2026-05-20T12:49:59.336Z)
Latitude
0.00004°
Longitude
153.16338°
Altitude
446.578 km
Speed
7.645 km/s
True Right ascension
14h 55m 24s
True Declination
0° 00' 00"
Sunlit
Object was in full shadow at epoch
Visualization orbit readout
Latitude
Unknown
Longitude
Unknown
Altitude
Unknown
Speed
Unknown
Apparent Right ascension
Unknown
Apparent Declination
Unknown
Sunlit
N/A
Visualization observer readout
Local Sidereal Time
07:12:57
Azimuth
Unknown
Elevation
Unknown
Doppler factor
Unknown
Orbital elements
Apogee altitude
444.669 km
Perigee altitude
439.936 km
Semi-major axis
6,820.439 km
Eccentricity
0.00035
Inclination
97.373°
RAAN
223.8535°
Arg. of periapsis
36.5597°
True anomaly
323.56499°
Mean anomaly
323.5886°
Eccentric anomaly
323.5768°
Mean motion
3.85323 °/min
Orbital period
93.43 mins
BSTAR
0.0003061
Loading maneuver chart data...
Computing Atmospheric mass density...
Loading historical data...
Loading historical data...
Loading historical data...
Loading historical data...
Loading historical data...
Loading historical data...
Loading historical data...

Documentation

Showing up to 5 results
|